When you browse on this site, cookies collect data to enhance your experience and personalize the content and advertising you see.
Visit our Privacy Policy to learn more. By continuing to use the site, you agree to this use of cookies and data.
  • In Deutschland
  • Länderverzeichnis
  • Für 7 Tage
  • Wassertemperatur
  • Satellitenkarten
  • Wetterkarte
  • Widgets
  • user-avatar
    Anmelden

    Stündliche Wetter Verhniy Cipikan

    Heute, 18 Februar, Montag

    Zeit Temperatur Niederschläge Wind Luftdruck Luftfeuchtigkeit
    00:00 -18°C° 0 mm 3 m/S 653 mmHg 79%
    01:00 -19°C° 0 mm 3 m/S 653 mmHg 79%
    02:00 -19°C° 0 mm 3 m/S 653 mmHg 80%
    03:00 -19°C° 0 mm 3 m/S 653 mmHg 81%
    04:00 -19°C° 0 mm 2 m/S 653 mmHg 82%
    05:00 -19°C° 0 mm 2 m/S 653 mmHg 83%
    06:00 -19°C° 0 mm 2 m/S 653 mmHg 84%
    07:00 -20°C° 0 mm 2 m/S 653 mmHg 84%
    08:00 -21°C° 0 mm 3 m/S 654 mmHg 83%
    09:00 -17°C° 0 mm 2 m/S 654 mmHg 81%
    10:00 -15°C° 0 mm 2 m/S 655 mmHg 79%
    11:00 -11°C° 0 mm 1 m/S 655 mmHg 78%
    12:00 -10°C° 0 mm 1 m/S 655 mmHg 76%
    13:00 -9°C° 0 mm 1 m/S 655 mmHg 74%
    14:00 -8°C° 0 mm 1 m/S 655 mmHg 73%
    15:00 -9°C° 0 mm 1 m/S 655 mmHg 77%
    16:00 -10°C° 0 mm 1 m/S 655 mmHg 80%
    17:00 -12°C° 0 mm 1 m/S 654 mmHg 83%
    18:00 -13°C° 0 mm 1 m/S 655 mmHg 84%
    19:00 -14°C° 0 mm 1 m/S 655 mmHg 84%
    20:00 -15°C° 0 mm 1 m/S 655 mmHg 84%
    21:00 -16°C° 0 mm 1 m/S 655 mmHg 84%
    22:00 -16°C° 0 mm 1 m/S 655 mmHg 84%
    23:00 -17°C° 0 mm 1 m/S 655 mmHg 85%

    Morgen, 19 Februar, Dienstag

    Zeit Temperatur Niederschläge Wind Luftdruck Luftfeuchtigkeit
    00:00 -17°C° 0 mm 1 m/S 655 mmHg 84%
    01:00 -17°C° 0 mm 1 m/S 655 mmHg 84%
    02:00 -17°C° 0 mm 1 m/S 655 mmHg 84%
    03:00 -17°C° 0 mm 1 m/S 655 mmHg 84%
    04:00 -17°C° 0 mm 1 m/S 655 mmHg 84%
    05:00 -18°C° 0 mm 1 m/S 655 mmHg 83%
    06:00 -18°C° 0 mm 1 m/S 655 mmHg 83%
    07:00 -18°C° 0 mm 1 m/S 655 mmHg 83%
    08:00 -18°C° 0 mm 1 m/S 655 mmHg 83%
    09:00 -15°C° 0 mm 1 m/S 656 mmHg 80%
    10:00 -13°C° 0 mm 1 m/S 656 mmHg 77%
    11:00 -11°C° 0 mm 1 m/S 657 mmHg 75%
    12:00 -9°C° 0 mm 1 m/S 657 mmHg 74%
    13:00 -8°C° 0 mm 1 m/S 657 mmHg 73%
    14:00 -7°C° 0 mm 1 m/S 657 mmHg 72%
    15:00 -7°C° 0 mm 1 m/S 657 mmHg 74%
    16:00 -8°C° 0 mm 1 m/S 656 mmHg 76%
    17:00 -9°C° 0 mm 1 m/S 656 mmHg 78%
    18:00 -10°C° 0 mm 1 m/S 657 mmHg 77%
    19:00 -13°C° 0 mm 2 m/S 657 mmHg 76%
    20:00 -14°C° 0 mm 2 m/S 657 mmHg 75%
    21:00 -14°C° 0 mm 2 m/S 657 mmHg 76%
    22:00 -15°C° 0 mm 2 m/S 657 mmHg 76%
    23:00 -16°C° 0 mm 2 m/S 658 mmHg 76%

    übermorgen, 20 Februar, Mittwoch

    Zeit Temperatur Niederschläge Wind Luftdruck Luftfeuchtigkeit
    00:00 -16°C° 0 mm 2 m/S 658 mmHg 77%
    01:00 -16°C° 0 mm 2 m/S 658 mmHg 78%
    02:00 -16°C° 0 mm 2 m/S 658 mmHg 79%
    03:00 -16°C° 0 mm 2 m/S 658 mmHg 80%
    04:00 -16°C° 0 mm 2 m/S 658 mmHg 80%
    05:00 -17°C° 0 mm 2 m/S 659 mmHg 81%
    06:00 -17°C° 0 mm 2 m/S 659 mmHg 82%
    07:00 -17°C° 0 mm 2 m/S 659 mmHg 83%
    08:00 -18°C° 0 mm 2 m/S 660 mmHg 84%
    09:00 -15°C° 0 mm 2 m/S 660 mmHg 84%
    10:00 -13°C° 0 mm 2 m/S 661 mmHg 83%
    11:00 -10°C° 0 mm 2 m/S 661 mmHg 82%
    12:00 -9°C° 0 mm 2 m/S 661 mmHg 81%
    13:00 -8°C° 0 mm 2 m/S 661 mmHg 80%
    14:00 -6°C° 0 mm 2 m/S 661 mmHg 79%
    15:00 -7°C° 0 mm 2 m/S 661 mmHg 81%
    16:00 -8°C° 0 mm 2 m/S 661 mmHg 82%
    17:00 -8°C° 0 mm 2 m/S 661 mmHg 84%
    18:00 -9°C° 0 mm 2 m/S 661 mmHg 84%
    19:00 -10°C° 0 mm 2 m/S 661 mmHg 84%
    20:00 -12°C° 0 mm 2 m/S 661 mmHg 84%
    21:00 -13°C° 0 mm 2 m/S 661 mmHg 85%
    22:00 -15°C° 0 mm 3 m/S 661 mmHg 86%
    23:00 -15°C° 0 mm 3 m/S 661 mmHg 88%

    21 Februar, Donnerstag

    Zeit Temperatur Niederschläge Wind Luftdruck Luftfeuchtigkeit
    00:00 -16°C° 0 mm 3 m/S 661 mmHg 89%
    01:00 -16°C° 0 mm 2 m/S 661 mmHg 90%
    02:00 -16°C° 0 mm 2 m/S 661 mmHg 91%
    03:00 -16°C° 0 mm 2 m/S 661 mmHg 90%
    04:00 -17°C° 0 mm 2 m/S 661 mmHg 90%
    05:00 -17°C° 0 mm 2 m/S 661 mmHg 90%
    06:00 -17°C° 0 mm 2 m/S 661 mmHg 89%
    07:00 -17°C° 0 mm 2 m/S 661 mmHg 87%
    08:00 -18°C° 0 mm 2 m/S 661 mmHg 86%
    09:00 -15°C° 0 mm 2 m/S 662 mmHg 85%
    10:00 -13°C° 0 mm 2 m/S 662 mmHg 83%
    11:00 -10°C° 0 mm 2 m/S 663 mmHg 81%
    12:00 -8°C° 0 mm 2 m/S 663 mmHg 79%
    13:00 -7°C° 0 mm 2 m/S 663 mmHg 77%
    14:00 -6°C° 0 mm 2 m/S 663 mmHg 75%
    15:00 -7°C° 0 mm 2 m/S 663 mmHg 77%
    16:00 -8°C° 0 mm 2 m/S 663 mmHg 80%
    17:00 -8°C° 0 mm 2 m/S 663 mmHg 82%
    18:00 -10°C° 0 mm 2 m/S 663 mmHg 82%
    19:00 -12°C° 0 mm 2 m/S 663 mmHg 83%
    20:00 -14°C° 0 mm 2 m/S 663 mmHg 84%
    21:00 -14°C° 0 mm 2 m/S 663 mmHg 84%
    22:00 -15°C° 0 mm 2 m/S 663 mmHg 85%
    23:00 -15°C° 0 mm 2 m/S 663 mmHg 86%

    22 Februar, Freitag

    Zeit Temperatur Niederschläge Wind Luftdruck Luftfeuchtigkeit
    00:00 -14°C° 0 mm 1 m/S 663 mmHg 86%
    01:00 -14°C° 0 mm 1 m/S 663 mmHg 86%
    02:00 -14°C° 0 mm 1 m/S 663 mmHg 86%
    03:00 -14°C° 0 mm 1 m/S 662 mmHg 85%
    04:00 -14°C° 0 mm 1 m/S 662 mmHg 84%
    05:00 -14°C° 0 mm 1 m/S 662 mmHg 83%
    06:00 -14°C° 0 mm 1 m/S 662 mmHg 82%
    07:00 -14°C° 0 mm 1 m/S 662 mmHg 81%
    08:00 -14°C° 0 mm 1 m/S 662 mmHg 80%
    09:00 -12°C° 0 mm 1 m/S 662 mmHg 78%
    10:00 -10°C° 0 mm 1 m/S 662 mmHg 77%
    11:00 -8°C° 0 mm 2 m/S 662 mmHg 76%
    12:00 -7°C° 0 mm 2 m/S 662 mmHg 75%
    13:00 -6°C° 0 mm 2 m/S 662 mmHg 75%
    14:00 -4°C° 0 mm 2 m/S 661 mmHg 75%
    15:00 -6°C° 0 mm 3 m/S 661 mmHg 76%
    16:00 -7°C° 0 mm 3 m/S 661 mmHg 77%
    17:00 -7°C° 0 mm 3 m/S 661 mmHg 79%
    18:00 -8°C° 0 mm 3 m/S 661 mmHg 78%
    19:00 -9°C° 0 mm 3 m/S 661 mmHg 78%
    20:00 -10°C° 0 mm 3 m/S 661 mmHg 78%
    21:00 -12°C° 0 mm 3 m/S 661 mmHg 80%
    22:00 -14°C° 0 mm 4 m/S 661 mmHg 82%
    23:00 -16°C° 0 mm 4 m/S 661 mmHg 84%

    23 Februar, Samstag

    Zeit Temperatur Niederschläge Wind Luftdruck Luftfeuchtigkeit
    00:00 -16°C° 0 mm 3 m/S 661 mmHg 85%
    01:00 -17°C° 0 mm 3 m/S 661 mmHg 86%
    02:00 -17°C° 0 mm 3 m/S 661 mmHg 87%
    03:00 -18°C° 0 mm 3 m/S 661 mmHg 88%
    04:00 -17°C° 0 mm 2 m/S 662 mmHg 89%
    05:00 -17°C° 0 mm 2 m/S 662 mmHg 90%
    06:00 -18°C° 0 mm 2 m/S 662 mmHg 90%
    07:00 -18°C° 0 mm 2 m/S 662 mmHg 91%
    08:00 -19°C° 0 mm 2 m/S 662 mmHg 91%
    09:00 -17°C° 0 mm 2 m/S 663 mmHg 89%
    10:00 -15°C° 0 mm 2 m/S 663 mmHg 87%
    11:00 -14°C° 0 mm 3 m/S 663 mmHg 85%
    12:00 -13°C° 0 mm 3 m/S 663 mmHg 81%
    13:00 -13°C° 0 mm 3 m/S 663 mmHg 77%
    14:00 -12°C° 0 mm 3 m/S 663 mmHg 73%
    15:00 -13°C° 0 mm 3 m/S 663 mmHg 75%
    16:00 -14°C° 0 mm 3 m/S 663 mmHg 77%
    17:00 -13°C° 0 mm 2 m/S 663 mmHg 79%
    18:00 -15°C° 0 mm 2 m/S 663 mmHg 81%
    19:00 -17°C° 0 mm 2 m/S 663 mmHg 83%
    20:00 -19°C° 0 mm 2 m/S 663 mmHg 85%
    21:00 -20°C° 0 mm 2 m/S 663 mmHg 87%
    22:00 -20°C° 0 mm 2 m/S 663 mmHg 89%
    23:00 -21°C° 0 mm 2 m/S 663 mmHg 91%
    Mehr zeigen